Weather History for Cancun, Mexico

Change the Weather History Date:

Sunday, March 3, 2013

  Actual Average Record
Temperature  
Mean Temperature 63 °F -  
Max Temperature 73 °F 83 °F 91 °F (1999)
Min Temperature 51 °F 67 °F 48 °F (2009)
Degree Days  
Heating Degree Days 2    
Growing Degree Days 13 (Base 50)    
Moisture  
Dew Point 49 °F    
Average Humidity 66    
Maximum Humidity 88    
Minimum Humidity 41    
Precipitation  
Precipitation 0.00 in - - ()
Sea Level Pressure  
Sea Level Pressure 30.17 in    
Wind  
Wind Speed 6 mph ()    
Max Wind Speed 16 mph    
Max Gust Speed 29 mph    
Visibility 7.0 miles    
Events      
Averages and records for this station are not official NWS values.
T = Trace of Precipitation, MM = Missing Value Source: Averaged Metar Reports

Daily Weather History Graph

Daily Weather History Graph

Search for Another Location

Airport:

Trip Planner

Search our weather history database for the weather conditions in past years. The results will help you decide how hot, cold, wet, or windy it might be!

Date:

Astronomy

Mar. 03, 2013 Rise Set
Actual Time 6:06 AM CST 5:52 PM CST
Civil Twilight 5:43 AM CST 6:15 PM CST
Nautical Twilight 5:18 AM CST 6:40 PM CST
Astronomical Twilight 4:52 AM CST 7:06 PM CST
Moon 11:44 PM CST (3/3) 10:10 AM CST (3/3)
Length of Visible Light 12h 31m
Length of Day
11h 46m
Waning Gibbous, 63% of the Moon is Illuminated
Mar 3
Waning Gibbous
Mar 4
Last Quarter
Mar 11
New
Mar 19
First Quarter
Mar 27
Full

Hourly Weather History & Observations

Time (CST) Temp. Dew Point Humidity Pressure Visibility Wind Dir Wind Speed Gust Speed Precip Events Conditions
12:45 AM 57.2 °F 46.4 °F 67% 30.15 in 7.0 mi West 5.8 mph - N/A   Clear
1:44 AM 57.2 °F 48.2 °F 72% 30.13 in 7.0 mi West 5.8 mph - N/A   Clear
2:46 AM 55.4 °F 48.2 °F 77% 30.11 in 7.0 mi Calm Calm - N/A   Clear
3:45 AM 55.4 °F 50.0 °F 82% 30.11 in 7.0 mi WSW 5.8 mph - N/A   Clear
4:44 AM 53.6 °F 50.0 °F 88% 30.11 in 7.0 mi Calm Calm - N/A   Clear
5:43 AM 53.6 °F 50.0 °F 88% 30.13 in 7.0 mi West 5.8 mph - N/A   Partly Cloudy
6:42 AM 55.4 °F 51.8 °F 88% 30.15 in 7.0 mi Calm Calm - N/A   Partly Cloudy
7:40 AM 59.0 °F 51.8 °F 77% 30.17 in 7.0 mi WNW 8.1 mph - N/A   Mostly Cloudy
8:43 AM 68.0 °F 51.8 °F 56% 30.18 in 7.0 mi NW 13.8 mph - N/A   Mostly Cloudy
9:46 AM 71.6 °F 48.2 °F 43% 30.19 in 7.0 mi NW 15.0 mph 28.8 mph N/A   Mostly Cloudy
10:41 AM 69.8 °F 48.2 °F 46% 30.19 in 7.0 mi NW 16.1 mph - N/A   Mostly Cloudy
11:46 AM 69.8 °F 51.8 °F 53% 30.19 in 7.0 mi NNW 16.1 mph - N/A   Mostly Cloudy
12:44 PM 71.6 °F 51.8 °F 50% 30.16 in 7.0 mi NNW 16.1 mph - N/A   Mostly Cloudy
1:41 PM 71.6 °F 48.2 °F 43% 30.15 in 7.0 mi NNW 11.5 mph 24.2 mph N/A   Mostly Cloudy
2:45 PM 73.4 °F 48.2 °F 41% 30.15 in 7.0 mi NNW 10.4 mph 23.0 mph N/A   Mostly Cloudy
3:44 PM 71.6 °F 50.0 °F 46% 30.15 in 7.0 mi NNW 10.4 mph - N/A   Scattered Clouds
4:46 PM 69.8 °F 50.0 °F 49% 30.16 in 7.0 mi North 13.8 mph - N/A   Scattered Clouds
5:42 PM 64.4 °F 50.0 °F 59% 30.18 in 7.0 mi North 8.1 mph - N/A   Scattered Clouds
6:46 PM 60.8 °F 50.0 °F 68% 30.19 in 7.0 mi NNW 4.6 mph - N/A   Scattered Clouds
7:43 PM 57.2 °F 50.0 °F 77% 30.20 in 7.0 mi NW 4.6 mph - N/A   Partly Cloudy
8:42 PM 55.4 °F 48.2 °F 77% 30.21 in 7.0 mi WNW 8.1 mph - N/A   Clear
9:44 PM 55.4 °F 48.2 °F 77% 30.22 in 7.0 mi Calm Calm - N/A   Clear
10:45 PM 53.6 °F 48.2 °F 82% 30.22 in 7.0 mi WNW 4.6 mph - N/A   Clear
11:48 PM 51.8 °F 48.2 °F 88% 30.20 in 7.0 mi WNW 5.8 mph - N/A   Clear